Barrow, AK

12:06 AM AKDT on June 18, 2018 (GMT -0800)
Wiley Post-Will Rogers Memorial

Weather History for PABR - January, 2017

Change the Weather History Date:

Sunday, January 1, 2017

  Actual Average Record
Temperature  
Mean Temperature 28 °F -11 °F  
Max Temperature 36 °F -5 °F 36 °F (2017)
Min Temperature 19 °F -18 °F -51 °F (1956)
Degree Days  
Heating Degree Days 38 76  
Month to date heating degree days 76  
Since 1 July heating degree days 8285  
Cooling Degree Days 0 0  
Month to date cooling degree days 0  
Year to date cooling degree days 0  
Moisture  
Dew Point 28 °F    
Average Humidity 86    
Maximum Humidity 92    
Minimum Humidity 81    
Precipitation  
Precipitation 0.32 in 0.00 in 0.32 in (2017)
Month to date precipitation 0.00  
Year to date precipitation 0.00  
Snow  
Snow 0.00 in 0.10 in 3.10 in (2017)
Month to date snowfall 0.1  
Since 1 July snowfall 23.9  
Snow Depth 6.00 in    
Sea Level Pressure  
Sea Level Pressure 29.83 in    
Wind  
Wind Speed 19 mph (South)    
Max Wind Speed 29 mph    
Max Gust Speed 36 mph    
Visibility 5 miles    
Events Rain , Snow    
T = Trace of Precipitation, MM = Missing Value Source: NWS Daily Summary

Daily Weather History Graph

Daily Weather History Graph

Search for Another Location

Airport or City:

Astronomy

Dec. 31, 1969 Rise Set
Actual Time Sun does not set Sun does not set
Civil Twilight 11:44 AM AKST 3:17 PM AKST
Nautical Twilight 9:43 AM AKST 5:19 PM AKST
Astronomical Twilight 8:17 AM AKST 6:44 PM AKST
Moon 1:11 PM AKST (1/1) 8:02 PM AKST (1/1)
Length of Visible Light 3h 32m
Length of Day
0h 00m
Waxing Crescent, 12% of the Moon is Illuminated
Jan 1
Waxing Crescent
Jan 5
First Quarter
Jan 12
Full
Jan 19
Last Quarter
Jan 27
New

Hourly Weather History & Observations

Time (AKST) Temp. Windchill Dew Point Humidity Pressure Visibility Wind Dir Wind Speed Gust Speed Precip Events Conditions
12:02 AM 19.9 °F 5.7 °F 15.1 °F 81% 29.90 in 1.8 mi ESE 16.1 mph - 0.00 in Snow Light Snow
12:22 AM 19.9 °F 6.7 °F 16.0 °F 85% 29.89 in 2.5 mi ESE 13.8 mph - 0.01 in Snow Light Snow
12:31 AM 21.0 °F 8.1 °F 17.1 °F 85% 29.89 in 3.0 mi ESE 13.8 mph - 0.10 in Snow Light Snow
12:40 AM 21.9 °F 9.8 °F 18.0 °F 85% 29.89 in 2.0 mi ESE 12.7 mph - 0.14 in Snow Light Snow
12:46 AM 21.9 °F 9.2 °F 18.0 °F 85% 29.88 in 1.5 mi ESE 13.8 mph - 0.17 in Snow Light Snow
12:53 AM 21.9 °F 8.7 °F 18.0 °F 85% 29.88 in 1.0 mi ESE 15.0 mph - 0.17 in Snow Light Snow
1:38 AM 27.0 °F 16.1 °F 24.1 °F 89% 29.85 in 0.8 mi SE 12.7 mph - 0.02 in Snow Light Snow
1:53 AM 28.0 °F 17.0 °F 25.0 °F 88% 29.86 in 1.0 mi SSE 13.8 mph - 0.03 in Snow Light Snow
2:53 AM 33.1 °F 21.2 °F 30.0 °F 89% 29.84 in 1.0 mi South 20.7 mph - 0.03 in Snow Light Snow
2:59 AM 34.0 °F 22.1 °F 30.9 °F 89% 29.83 in 0.8 mi South 21.9 mph - 0.01 in Snow Light Snow
3:16 AM 34.0 °F 21.0 °F 30.9 °F 89% 29.83 in 1.0 mi South 26.5 mph - 0.02 in Snow Light Snow
3:39 AM 34.0 °F 21.5 °F 30.9 °F 89% 29.81 in 1.5 mi South 24.2 mph - 0.03 in Snow Light Snow
3:53 AM 34.0 °F 21.0 °F 32.0 °F 92% 29.81 in 1.5 mi South 26.5 mph - 0.04 in Snow Light Snow
4:02 AM 34.0 °F 21.5 °F 30.9 °F 89% 29.81 in 1.8 mi South 24.2 mph - 0.00 in Snow Light Snow
4:23 AM 35.1 °F 23.3 °F 30.9 °F 85% 29.80 in 3.0 mi South 23.0 mph - 0.02 in Snow Light Snow
4:31 AM 35.1 °F 23.3 °F 30.9 °F 85% 29.80 in 9.0 mi South 23.0 mph - 0.02 in   Overcast
4:53 AM 35.1 °F 23.3 °F 32.0 °F 89% 29.80 in 10.0 mi South 23.0 mph - 0.02 in   Overcast
5:53 AM 35.1 °F 22.5 °F 32.0 °F 89% 29.81 in 2.5 mi SSW 26.5 mph - 0.00 in Snow Light Snow
6:06 AM 35.1 °F 23.0 °F 33.1 °F 92% 29.80 in 3.0 mi SSW 24.2 mph - 0.00 in Snow Light Snow
6:28 AM 36.0 °F 25.0 °F 33.1 °F 89% 29.79 in 9.0 mi South 20.7 mph - 0.00 in   Overcast
6:53 AM 36.0 °F 24.7 °F 33.1 °F 89% 29.79 in 10.0 mi South 21.9 mph - 0.00 in   Overcast
7:53 AM 36.0 °F 23.2 °F 32.0 °F 86% 29.78 in 10.0 mi South 28.8 mph - N/A   Overcast
8:53 AM 36.0 °F 23.5 °F 32.0 °F 86% 29.79 in 10.0 mi SSW 27.6 mph - N/A   Overcast
9:53 AM 35.1 °F 23.0 °F 32.0 °F 89% 29.82 in 10.0 mi South 24.2 mph - N/A   Overcast
10:39 AM 34.0 °F 22.4 °F 30.0 °F 85% 29.83 in 10.0 mi SSW 20.7 mph - N/A   Overcast
10:53 AM 35.1 °F 23.5 °F 30.0 °F 82% 29.84 in 10.0 mi SSW 21.9 mph - N/A   Overcast
11:53 AM 34.0 °F 24.6 °F 30.9 °F 89% 29.85 in 7.0 mi SSW 13.8 mph - 0.01 in Snow Light Snow
12:53 PM 34.0 °F 24.6 °F 30.9 °F 89% 29.85 in 10.0 mi South 13.8 mph - 0.00 in   Overcast
1:23 PM 34.0 °F 25.0 °F 30.0 °F 85% 29.84 in 4.0 mi South 12.7 mph - 0.00 in Rain Light Freezing Rain
1:27 PM 34.0 °F 24.6 °F 30.0 °F 85% 29.84 in 2.5 mi South 13.8 mph - 0.00 in Snow Light Snow
1:30 PM 34.0 °F 23.8 °F 30.9 °F 89% 29.84 in 2.0 mi South 16.1 mph - 0.00 in Snow Light Freezing Drizzle
1:53 PM 34.0 °F 25.0 °F 30.9 °F 89% 29.84 in 4.0 mi South 12.7 mph - 0.01 in Snow Light Freezing Drizzle
2:20 PM 33.1 °F 24.9 °F 28.9 °F 85% 29.82 in 9.0 mi South 10.4 mph - 0.00 in   Overcast
2:53 PM 32.0 °F 22.5 °F 28.0 °F 85% 29.81 in 10.0 mi South 12.7 mph - N/A   Scattered Clouds
3:53 PM 33.1 °F 21.2 °F 28.0 °F 82% 29.78 in 10.0 mi South 20.7 mph - N/A   Clear
4:53 PM 34.0 °F 21.0 °F 28.9 °F 82% 29.76 in 5.0 mi South 26.5 mph 35.7 mph N/A   Haze
5:16 PM 33.1 °F 19.6 °F 28.0 °F 82% 29.76 in 5.0 mi South 27.6 mph - N/A   Haze
5:53 PM 33.1 °F 20.3 °F 28.0 °F 82% 29.76 in 10.0 mi South 24.2 mph - N/A   Overcast
6:39 PM 33.1 °F 20.3 °F 28.0 °F 82% 29.79 in 2.5 mi SSW 24.2 mph - 0.00 in Snow Light Snow
6:51 PM 33.8 °F 21.3 °F 28.4 °F 81% 29.79 in 1.0 mi SSW 24.2 mph - 0.00 in Snow Light Snow
6:53 PM 33.1 °F 20.3 °F 28.9 °F 85% 29.80 in 1.0 mi SSW 24.2 mph - 0.00 in Snow Light Snow
7:02 PM 33.1 °F 20.3 °F 28.9 °F 85% 29.80 in 1.8 mi SW 24.2 mph - 0.00 in Snow Light Snow
7:23 PM 30.9 °F 19.1 °F 28.0 °F 89% 29.82 in 2.0 mi WSW 18.4 mph 29.9 mph 0.01 in Snow Light Snow
7:42 PM 30.9 °F 19.8 °F 27.0 °F 85% 29.83 in 9.0 mi WSW 16.1 mph - 0.01 in Snow Light Snow
7:53 PM 32.0 °F 20.5 °F 27.0 °F 82% 29.84 in 3.0 mi WSW 18.4 mph - 0.01 in Snow Light Snow
8:53 PM 30.9 °F 20.2 °F 26.1 °F 82% 29.86 in 10.0 mi SW 15.0 mph - 0.00 in   Overcast
9:53 PM 28.9 °F 16.9 °F 25.0 °F 85% 29.88 in 10.0 mi SSW 17.3 mph - N/A   Overcast
10:53 PM 27.0 °F 13.5 °F 23.0 °F 85% 29.92 in 10.0 mi SSW 19.6 mph - N/A   Mostly Cloudy
11:17 PM 28.0 °F 15.7 °F 23.0 °F 81% 29.93 in 10.0 mi SSW 17.3 mph - N/A   Scattered Clouds
11:53 PM 24.1 °F 10.6 °F 19.9 °F 84% 29.94 in 10.0 mi SSW 17.3 mph - N/A   Clear